QPF
0.00 0.00 0.00 0.00 0.00 0.00 0.00 0.00 0.00 0.00 0.00 0.00 0.00 0.00 0.00 0.00 0.00 0.00 0.01 0.01 0.02 0.02 0.01 0.00 0.00 0.01 0.02 0.05 0.05 0.05 0.09 0.12 0.12 0.11 0.11 0.13 0.11 0.08 0.07 0.06 0.07 0.07 0.07 0.07
0.00 0.00 0.00 0.00 0.00 0.00 0.00 0.00 0.00 0.00 0.00 0.00 0.00 0.00 0.00 0.00 0.00 0.00 0.00 0.00 0.01 0.01 0.01 0.00 0.00 0.01 0.01 0.02 0.02 0.05 0.08 0.09 0.09 0.10 0.10 0.09 0.09 0.08 0.08 0.09 0.09 0.08 0.07 0.06
0.00 0.00 0.00 0.00 0.00 0.00 0.00 0.00 0.00 0.00 0.00 0.00 0.00 0.00 0.00 0.00 0.00 0.00 0.00 0.01 0.01 0.01 0.01 0.01 0.01 0.02 0.02 0.02 0.02 0.05 0.05 0.05 0.05 0.06 0.08 0.07 0.08 0.10 0.12 0.13 0.11 0.07 0.05 0.06
0.00 0.00 0.00 0.00 0.00 0.00 0.00 0.00 0.00 0.00 0.00 0.00 0.00 0.00 0.00 0.00 0.00 0.00 0.00 0.00 0.01 0.00 0.00 0.01 0.01 0.02 0.03 0.03 0.03 0.04 0.04 0.04 0.06 0.06 0.06 0.06 0.06 0.08 0.11 0.13 0.11 0.08 0.06 0.06
0.00 0.00 0.00 0.00 0.00 0.00 0.00 0.00 0.00 0.00 0.00 0.00 0.00 0.00 0.00 0.00 0.00 0.00 0.00 0.00 0.00 0.00 0.00 0.01 0.01 0.01 0.02 0.03 0.03 0.04 0.04 0.04 0.06 0.06 0.05 0.06 0.06 0.07 0.09 0.09 0.12 0.11 0.08 0.08
0.00 0.00 0.00 0.00 0.00 0.00 0.00 0.00 0.00 0.00 0.00 0.00 0.00 0.00 0.00 0.00 0.00 0.00 0.00 0.00 0.00 0.00 0.00 0.00 0.00 0.01 0.01 0.02 0.03 0.03 0.04 0.03 0.03 0.04 0.04 0.06 0.07 0.07 0.08 0.09 0.08 0.07 0.07 0.08
0.00 0.00 0.00 0.00 0.00 0.00 0.00 0.00 0.00 0.00 0.00 0.00 0.00 0.00 0.00 0.00 0.00 0.00 0.00 0.00 0.00 0.00 0.00 0.00 0.00 0.00 0.01 0.02 0.02 0.03 0.04 0.03 0.03 0.02 0.04 0.05 0.06 0.06 0.06 0.07 0.07 0.08 0.06 0.06
0.00 0.00 0.00 0.00 0.00 0.00 0.00 0.00 0.00 0.00 0.00 0.00 0.00 0.00 0.00 0.00 0.00 0.00 0.00 0.00 0.00 0.00 0.00 0.00 0.00 0.00 0.01 0.03 0.03 0.03 0.04 0.03 0.01 0.01 0.03 0.03 0.04 0.04 0.04 0.05 0.06 0.07 0.05 0.04
0.00 0.00 0.00 0.00 0.00 0.00 0.00 0.00 0.00 0.00 0.00 0.00 0.00 0.00 0.00 0.00 0.00 0.00 0.00 0.00 0.00 0.00 0.00 0.00 0.00 0.01 0.02 0.02 0.02 0.02 0.04 0.03 0.01 0.02 0.03 0.02 0.03 0.04 0.05 0.05 0.05 0.06 0.05 0.04
0.00 0.00 0.00 0.00 0.00 0.00 0.00 0.00 0.00 0.00 0.00 0.00 0.00 0.00 0.00 0.00 0.00 0.00 0.00 0.00 0.00 0.00 0.00 0.00 0.00 0.01 0.01 0.01 0.01 0.02 0.03 0.03 0.02 0.02 0.02 0.02 0.02 0.03 0.04 0.03 0.04 0.05 0.05 0.05
0.00 0.00 0.00 0.00 0.00 0.00 0.00 0.00 0.00 0.00 0.00 0.00 0.00 0.00 0.00 0.00 0.00 0.00 0.00 0.00 0.00 0.00 0.00 0.01 0.01 0.00 0.00 0.01 0.01 0.01 0.03 0.03 0.03 0.03 0.02 0.02 0.01 0.02 0.03 0.04 0.04 0.04 0.05 0.06
0.00 0.00 0.00 0.00 0.00 0.00 0.00 0.00 0.00 0.00 0.00 0.00 0.00 0.00 0.00 0.00 0.00 0.00 0.00 0.00 0.00 0.00 0.00 0.01 0.00 0.00 0.01 0.00 0.01 0.01 0.03 0.04 0.04 0.02 0.01 0.01 0.01 0.02 0.03 0.03 0.03 0.04 0.06 0.07
0.00 0.00 0.00 0.00 0.00 0.00 0.00 0.00 0.00 0.00 0.00 0.00 0.00 0.00 0.00 0.00 0.00 0.00 0.00 0.00 0.00 0.00 0.00 0.00 0.01 0.00 0.01 0.00 0.01 0.01 0.02 0.02 0.02 0.01 0.01 0.01 0.01 0.02 0.02 0.03 0.03 0.04 0.05 0.06
0.00 0.00 0.00 0.00 0.00 0.00 0.00 0.00 0.00 0.00 0.00 0.00 0.00 0.00 0.00 0.00 0.00 0.00 0.00 0.00 0.00 0.00 0.00 0.01 0.01 0.01 0.01 0.00 0.00 0.01 0.01 0.01 0.01 0.01 0.01 0.02 0.02 0.03 0.02 0.02 0.02 0.02 0.02 0.04
0.00 0.00 0.00 0.00 0.00 0.00 0.00 0.00 0.00 0.00 0.00 0.00 0.00 0.00 0.00 0.00 0.00 0.00 0.00 0.00 0.00 0.00 0.00 0.01 0.01 0.01 0.01 0.01 0.01 0.01 0.04 0.02 0.01 0.01 0.01 0.01 0.02 0.03 0.02 0.02 0.02 0.03 0.03 0.03
0.00 0.00 0.00 0.00 0.00 0.00 0.00 0.00 0.00 0.00 0.00 0.00 0.00 0.00 0.00 0.00 0.00 0.00 0.00 0.00 0.00 0.00 0.00 0.01 0.01 0.01 0.01 0.01 0.01 0.02 0.03 0.02 0.01 0.02 0.01 0.02 0.03 0.03 0.02 0.03 0.02 0.03 0.03 0.03
0.00 0.00 0.00 0.00 0.00 0.00 0.00 0.00 0.00 0.00 0.00 0.00 0.00 0.00 0.00 0.00 0.00 0.00 0.00 0.00 0.00 0.00 0.00 0.00 0.01 0.01 0.01 0.01 0.02 0.03 0.02 0.02 0.02 0.03 0.03 0.04 0.04 0.03 0.02 0.02 0.01 0.01 0.02 0.02
0.00 0.00 0.00 0.00 0.00 0.00 0.00 0.00 0.00 0.00 0.00 0.00 0.00 0.00 0.00 0.00 0.00 0.00 0.00 0.00 0.00 0.00 0.00 0.00 0.00 0.00 0.01 0.01 0.01 0.02 0.02 0.02 0.03 0.04 0.04 0.05 0.05 0.04 0.03 0.03 0.02 0.02 0.02 0.02
0.00 0.00 0.00 0.00 0.00 0.00 0.00 0.00 0.00 0.00 0.00 0.00 0.00 0.00 0.00 0.00 0.00 0.00 0.00 0.00 0.01 0.00 0.00 0.00 0.00 0.01 0.02 0.01 0.02 0.02 0.03 0.04 0.05 0.07 0.09 0.08 0.06 0.06 0.08 0.08 0.04 0.02 0.02 0.02
0.00 0.00 0.00 0.00 0.00 0.00 0.00 0.00 0.00 0.00 0.00 0.00 0.00 0.00 0.00 0.00 0.00 0.00 0.00 0.01 0.01 0.01 0.01 0.01 0.01 0.02 0.02 0.02 0.02 0.03 0.05 0.07 0.09 0.09 0.11 0.09 0.09 0.11 0.15 0.15 0.11 0.05 0.03 0.02
0.00 0.00 0.00 0.00 0.00 0.00 0.00 0.00 0.00 0.00 0.00 0.00 0.00 0.00 0.00 0.00 0.00 0.00 0.01 0.01 0.01 0.01 0.01 0.01 0.01 0.02 0.03 0.04 0.04 0.05 0.07 0.08 0.08 0.07 0.09 0.10 0.11 0.13 0.13 0.12 0.09 0.06 0.03 0.02
0.00 0.00 0.00 0.00 0.00 0.00 0.00 0.00 0.00 0.00 0.00 0.00 0.00 0.00 0.00 0.00 0.00 0.00 0.01 0.01 0.01 0.00 0.01 0.01 0.01 0.01 0.02 0.04 0.04 0.05 0.06 0.08 0.09 0.08 0.10 0.13 0.15 0.13 0.12 0.10 0.06 0.03 0.03 0.02
0.00 0.00 0.00 0.00 0.00 0.00 0.00 0.00 0.00 0.00 0.00 0.00 0.00 0.00 0.00 0.00 0.00 0.00 0.00 0.01 0.01 0.01 0.01 0.01 0.01 0.01 0.01 0.02 0.02 0.02 0.02 0.04 0.05 0.09 0.18 0.20 0.18 0.13 0.11 0.10 0.06 0.03 0.02 0.02
0.00 0.00 0.00 0.00 0.00 0.00 0.00 0.00 0.00 0.00 0.00 0.00 0.01 0.00 0.00 0.00 0.00 0.00 0.00 0.01 0.01 0.02 0.03 0.04 0.03 0.02 0.02 0.02 0.02 0.02 0.05 0.08 0.12 0.13 0.13 0.11 0.09 0.07 0.06 0.06 0.04 0.02 0.01 0.01
0.00 0.00 0.00 0.00 0.00 0.01 0.01 0.00 0.00 0.00 0.00 0.00 0.00 0.00 0.00 0.01 0.01 0.01 0.01 0.01 0.02 0.03 0.03 0.03 0.02 0.02 0.01 0.01 0.02 0.02 0.04 0.05 0.07 0.06 0.05 0.04 0.03 0.03 0.03 0.03 0.02 0.02 0.02 0.02
0.01 0.00 0.01 0.00 0.00 0.01 0.01 0.00 0.00 0.00 0.00 0.00 0.00 0.00 0.01 0.01 0.02 0.02 0.01 0.01 0.01 0.02 0.01 0.01 0.01 0.00 0.00 0.00 0.01 0.02 0.05 0.08 0.06 0.03 0.03 0.04 0.03 0.03 0.03 0.02 0.02 0.02 0.02 0.03
MSLP
1011.67 1012.29 1012.82 1013.23 1013.50 1013.63 1013.62 1013.50 1013.29 1013.03 1012.74 1012.45 1012.19 1011.98 1011.85 1011.81 1011.86 1012.00 1012.21 1012.49 1012.82 1013.17 1013.54 1013.93 1014.32 1014.71 1015.12 1015.52 1015.93 1016.31 1016.66 1016.96 1017.20 1017.37 1017.48 1017.55 1017.59 1017.61 1017.65 1017.72 1017.80 1017.92 1018.05 1018.19
1012.37 1012.86 1013.24 1013.52 1013.68 1013.76 1013.76 1013.70 1013.60 1013.46 1013.30 1013.12 1012.93 1012.74 1012.57 1012.44 1012.37 1012.37 1012.47 1012.65 1012.91 1013.23 1013.59 1013.98 1014.38 1014.78 1015.17 1015.55 1015.91 1016.26 1016.58 1016.86 1017.11 1017.31 1017.46 1017.56 1017.62 1017.65 1017.67 1017.68 1017.71 1017.75 1017.82 1017.91
1012.95 1013.27 1013.49 1013.62 1013.69 1013.72 1013.74 1013.77 1013.81 1013.84 1013.83 1013.78 1013.66 1013.49 1013.27 1013.05 1012.85 1012.72 1012.69 1012.76 1012.95 1013.24 1013.60 1014.00 1014.42 1014.83 1015.22 1015.58 1015.92 1016.24 1016.54 1016.83 1017.09 1017.32 1017.50 1017.64 1017.71 1017.73 1017.71 1017.66 1017.61 1017.56 1017.56 1017.59
1013.38 1013.53 1013.59 1013.59 1013.58 1013.59 1013.67 1013.81 1014.00 1014.20 1014.36 1014.43 1014.39 1014.23 1013.97 1013.65 1013.32 1013.05 1012.88 1012.86 1012.98 1013.23 1013.59 1014.00 1014.44 1014.86 1015.26 1015.61 1015.94 1016.24 1016.54 1016.82 1017.10 1017.36 1017.58 1017.74 1017.83 1017.84 1017.78 1017.67 1017.54 1017.42 1017.33 1017.30
1013.64 1013.66 1013.59 1013.50 1013.44 1013.47 1013.62 1013.88 1014.23 1014.60 1014.91 1015.10 1015.13 1014.97 1014.66 1014.24 1013.79 1013.39 1013.10 1012.98 1013.03 1013.25 1013.60 1014.02 1014.47 1014.91 1015.30 1015.65 1015.96 1016.24 1016.52 1016.81 1017.11 1017.39 1017.64 1017.84 1017.95 1017.96 1017.88 1017.72 1017.53 1017.34 1017.18 1017.09
1013.76 1013.69 1013.54 1013.40 1013.34 1013.41 1013.65 1014.04 1014.53 1015.05 1015.49 1015.77 1015.85 1015.70 1015.34 1014.84 1014.28 1013.77 1013.38 1013.17 1013.16 1013.35 1013.68 1014.11 1014.56 1014.99 1015.37 1015.69 1015.96 1016.22 1016.48 1016.76 1017.06 1017.36 1017.64 1017.87 1018.01 1018.03 1017.95 1017.78 1017.55 1017.31 1017.10 1016.96
1013.77 1013.65 1013.48 1013.34 1013.31 1013.45 1013.77 1014.27 1014.88 1015.50 1016.04 1016.39 1016.51 1016.36 1015.97 1015.41 1014.78 1014.19 1013.74 1013.47 1013.42 1013.57 1013.89 1014.29 1014.72 1015.12 1015.46 1015.73 1015.96 1016.16 1016.38 1016.63 1016.92 1017.23 1017.53 1017.78 1017.95 1018.01 1017.94 1017.78 1017.54 1017.29 1017.06 1016.89
1013.68 1013.56 1013.41 1013.32 1013.34 1013.54 1013.94 1014.52 1015.21 1015.90 1016.49 1016.88 1017.02 1016.88 1016.48 1015.91 1015.26 1014.65 1014.16 1013.87 1013.80 1013.93 1014.21 1014.58 1014.96 1015.31 1015.58 1015.78 1015.93 1016.06 1016.21 1016.41 1016.67 1016.97 1017.28 1017.55 1017.75 1017.84 1017.81 1017.67 1017.46 1017.22 1017.00 1016.83
1013.53 1013.45 1013.35 1013.31 1013.39 1013.65 1014.10 1014.71 1015.43 1016.14 1016.74 1017.15 1017.31 1017.19 1016.82 1016.28 1015.67 1015.09 1014.63 1014.35 1014.27 1014.38 1014.63 1014.95 1015.27 1015.53 1015.71 1015.82 1015.87 1015.91 1015.98 1016.12 1016.32 1016.59 1016.88 1017.16 1017.38 1017.51 1017.52 1017.42 1017.26 1017.05 1016.86 1016.72
1013.34 1013.31 1013.28 1013.30 1013.43 1013.71 1014.17 1014.77 1015.46 1016.14 1016.73 1017.14 1017.31 1017.24 1016.94 1016.48 1015.96 1015.46 1015.08 1014.85 1014.79 1014.89 1015.10 1015.35 1015.59 1015.76 1015.84 1015.84 1015.79 1015.73 1015.71 1015.77 1015.91 1016.12 1016.38 1016.65 1016.88 1017.03 1017.08 1017.03 1016.92 1016.78 1016.64 1016.54
1013.13 1013.16 1013.19 1013.25 1013.41 1013.69 1014.11 1014.66 1015.27 1015.89 1016.43 1016.83 1017.03 1017.02 1016.83 1016.50 1016.12 1015.76 1015.47 1015.32 1015.30 1015.40 1015.57 1015.75 1015.90 1015.97 1015.94 1015.84 1015.70 1015.55 1015.44 1015.41 1015.48 1015.64 1015.85 1016.09 1016.30 1016.46 1016.54 1016.55 1016.49 1016.42 1016.34 1016.30
1012.91 1013.00 1013.08 1013.18 1013.34 1013.59 1013.95 1014.40 1014.91 1015.44 1015.92 1016.30 1016.54 1016.62 1016.56 1016.39 1016.18 1015.97 1015.82 1015.76 1015.78 1015.87 1016.00 1016.11 1016.17 1016.15 1016.03 1015.85 1015.62 1015.40 1015.22 1015.12 1015.12 1015.21 1015.36 1015.55 1015.74 1015.89 1015.99 1016.03 1016.04 1016.03 1016.03 1016.05
1012.72 1012.86 1012.99 1013.11 1013.26 1013.46 1013.73 1014.07 1014.47 1014.90 1015.31 1015.67 1015.95 1016.13 1016.22 1016.23 1016.20 1016.16 1016.14 1016.17 1016.23 1016.32 1016.40 1016.44 1016.42 1016.32 1016.13 1015.88 1015.60 1015.33 1015.10 1014.95 1014.88 1014.90 1014.99 1015.12 1015.26 1015.40 1015.50 1015.58 1015.64 1015.70 1015.76 1015.86
1012.57 1012.77 1012.94 1013.08 1013.22 1013.36 1013.54 1013.77 1014.05 1014.38 1014.74 1015.09 1015.41 1015.70 1015.93 1016.11 1016.26 1016.38 1016.48 1016.59 1016.68 1016.75 1016.79 1016.77 1016.68 1016.51 1016.27 1015.99 1015.68 1015.38 1015.12 1014.93 1014.81 1014.76 1014.78 1014.84 1014.93 1015.04 1015.14 1015.25 1015.35 1015.47 1015.61 1015.77
1012.48 1012.74 1012.96 1013.12 1013.25 1013.34 1013.44 1013.57 1013.76 1014.00 1014.30 1014.65 1015.02 1015.40 1015.77 1016.11 1016.41 1016.67 1016.88 1017.04 1017.15 1017.20 1017.19 1017.11 1016.97 1016.75 1016.49 1016.19 1015.87 1015.56 1015.29 1015.06 1014.89 1014.78 1014.73 1014.72 1014.75 1014.82 1014.92 1015.05 1015.20 1015.38 1015.59 1015.81
1012.46 1012.78 1013.05 1013.25 1013.36 1013.43 1013.47 1013.52 1013.62 1013.80 1014.06 1014.41 1014.82 1015.29 1015.77 1016.24 1016.67 1017.03 1017.32 1017.53 1017.64 1017.67 1017.62 1017.49 1017.30 1017.06 1016.78 1016.48 1016.17 1015.86 1015.58 1015.32 1015.10 1014.93 1014.80 1014.72 1014.69 1014.72 1014.81 1014.96 1015.16 1015.40 1015.67 1015.97
1012.51 1012.89 1013.21 1013.43 1013.56 1013.60 1013.60 1013.59 1013.63 1013.76 1014.00 1014.34 1014.80 1015.33 1015.90 1016.47 1016.99 1017.44 1017.78 1018.01 1018.13 1018.14 1018.05 1017.89 1017.68 1017.42 1017.14 1016.84 1016.54 1016.24 1015.94 1015.65 1015.38 1015.13 1014.92 1014.77 1014.68 1014.67 1014.75 1014.91 1015.16 1015.46 1015.81 1016.16
1012.61 1013.03 1013.38 1013.63 1013.76 1013.80 1013.77 1013.73 1013.73 1013.82 1014.04 1014.39 1014.86 1015.44 1016.07 1016.70 1017.29 1017.79 1018.17 1018.42 1018.54 1018.54 1018.43 1018.26 1018.03 1017.78 1017.51 1017.22 1016.93 1016.63 1016.31 1015.98 1015.65 1015.32 1015.03 1014.80 1014.64 1014.59 1014.65 1014.84 1015.12 1015.49 1015.90 1016.31
1012.73 1013.17 1013.54 1013.79 1013.93 1013.95 1013.91 1013.84 1013.82 1013.89 1014.09 1014.44 1014.92 1015.52 1016.18 1016.85 1017.47 1018.00 1018.41 1018.67 1018.79 1018.79 1018.69 1018.52 1018.31 1018.07 1017.82 1017.56 1017.28 1016.97 1016.63 1016.25 1015.85 1015.45 1015.07 1014.75 1014.53 1014.43 1014.48 1014.66 1014.98 1015.39 1015.85 1016.32
1012.84 1013.27 1013.63 1013.88 1014.01 1014.02 1013.96 1013.88 1013.84 1013.90 1014.08 1014.42 1014.90 1015.49 1016.16 1016.84 1017.47 1018.01 1018.43 1018.70 1018.84 1018.85 1018.77 1018.63 1018.44 1018.24 1018.02 1017.79 1017.52 1017.22 1016.85 1016.44 1015.97 1015.50 1015.03 1014.63 1014.34 1014.18 1014.19 1014.37 1014.69 1015.13 1015.63 1016.15
1012.94 1013.33 1013.66 1013.89 1013.99 1013.99 1013.93 1013.84 1013.79 1013.83 1014.00 1014.32 1014.78 1015.36 1016.00 1016.66 1017.28 1017.82 1018.23 1018.51 1018.66 1018.70 1018.66 1018.55 1018.42 1018.27 1018.10 1017.90 1017.66 1017.36 1016.99 1016.54 1016.03 1015.48 1014.95 1014.47 1014.10 1013.87 1013.83 1013.97 1014.27 1014.71 1015.22 1015.76
1013.02 1013.37 1013.65 1013.84 1013.93 1013.92 1013.85 1013.76 1013.71 1013.75 1013.91 1014.20 1014.63 1015.17 1015.77 1016.39 1016.97 1017.48 1017.88 1018.15 1018.32 1018.39 1018.38 1018.33 1018.26 1018.16 1018.05 1017.91 1017.71 1017.43 1017.06 1016.60 1016.06 1015.46 1014.87 1014.32 1013.87 1013.57 1013.45 1013.52 1013.78 1014.17 1014.66 1015.20
1013.13 1013.43 1013.67 1013.82 1013.89 1013.88 1013.82 1013.74 1013.71 1013.75 1013.89 1014.17 1014.56 1015.04 1015.58 1016.14 1016.66 1017.11 1017.48 1017.74 1017.90 1017.99 1018.03 1018.03 1018.01 1017.99 1017.94 1017.85 1017.70 1017.47 1017.12 1016.66 1016.11 1015.49 1014.85 1014.24 1013.71 1013.32 1013.11 1013.10 1013.26 1013.58 1014.02 1014.52
1013.32 1013.56 1013.77 1013.90 1013.96 1013.96 1013.92 1013.87 1013.86 1013.91 1014.06 1014.31 1014.65 1015.07 1015.54 1016.02 1016.46 1016.85 1017.15 1017.38 1017.53 1017.63 1017.69 1017.73 1017.77 1017.80 1017.81 1017.79 1017.70 1017.51 1017.20 1016.77 1016.22 1015.59 1014.92 1014.25 1013.66 1013.18 1012.87 1012.73 1012.79 1013.00 1013.35 1013.79
1013.61 1013.83 1014.01 1014.14 1014.21 1014.23 1014.22 1014.21 1014.23 1014.31 1014.45 1014.68 1014.98 1015.34 1015.73 1016.11 1016.47 1016.77 1017.01 1017.18 1017.30 1017.39 1017.46 1017.52 1017.60 1017.67 1017.74 1017.76 1017.72 1017.58 1017.31 1016.91 1016.38 1015.76 1015.07 1014.36 1013.70 1013.13 1012.71 1012.46 1012.38 1012.48 1012.73 1013.09
1014.07 1014.27 1014.44 1014.57 1014.65 1014.70 1014.73 1014.77 1014.82 1014.92 1015.07 1015.28 1015.54 1015.83 1016.14 1016.44 1016.70 1016.92 1017.08 1017.19 1017.27 1017.33 1017.39 1017.46 1017.55 1017.65 1017.73 1017.79 1017.77 1017.66 1017.43 1017.05 1016.55 1015.92 1015.22 1014.49 1013.77 1013.13 1012.60 1012.23 1012.04 1012.02 1012.16 1012.44
Thickness
5839 5835 5829 5835 5840 5838 5834 5829 5825 5828 5838 5835 5828 5826 5828 5831 5827 5820 5816 5812 5807 5804 5804 5801 5795 5791 5785 5780 5775 5771 5766 5763 5759 5757 5754 5751 5750 5750 5751 5751 5750 5749 5748 5748
5824 5823 5834 5838 5837 5834 5830 5825 5825 5828 5835 5832 5827 5825 5829 5829 5825 5823 5818 5813 5810 5806 5803 5799 5794 5790 5785 5780 5775 5771 5767 5765 5761 5759 5757 5754 5752 5752 5752 5752 5750 5749 5749 5749
5819 5827 5834 5829 5827 5825 5826 5825 5826 5823 5828 5833 5826 5820 5822 5826 5827 5824 5822 5819 5815 5809 5804 5798 5793 5790 5786 5780 5776 5773 5769 5765 5762 5760 5757 5755 5752 5751 5751 5750 5750 5751 5750 5750
5820 5828 5825 5823 5823 5826 5818 5832 5829 5824 5820 5820 5820 5810 5818 5823 5821 5821 5820 5819 5815 5811 5807 5800 5794 5790 5786 5782 5779 5774 5770 5766 5762 5760 5757 5753 5751 5750 5751 5751 5752 5752 5751 5751
5813 5821 5818 5816 5824 5828 5826 5832 5829 5825 5820 5817 5820 5813 5816 5824 5817 5819 5821 5820 5817 5813 5807 5800 5796 5792 5788 5785 5780 5775 5770 5766 5763 5760 5757 5754 5753 5753 5754 5753 5751 5751 5752 5751
5818 5826 5827 5827 5831 5831 5828 5826 5823 5823 5823 5800 5808 5806 5806 5820 5817 5820 5823 5821 5817 5813 5808 5802 5798 5792 5788 5785 5780 5775 5770 5765 5763 5760 5758 5755 5753 5752 5751 5751 5751 5752 5753 5752
5801 5813 5825 5831 5820 5823 5824 5813 5799 5796 5797 5799 5810 5805 5807 5821 5825 5824 5822 5820 5818 5815 5809 5802 5796 5791 5786 5782 5779 5776 5770 5766 5764 5761 5759 5757 5754 5752 5751 5751 5751 5751 5752 5752
5790 5795 5815 5824 5822 5817 5819 5818 5797 5786 5790 5801 5804 5802 5815 5827 5829 5829 5827 5824 5819 5814 5810 5804 5798 5792 5786 5782 5779 5775 5771 5766 5764 5762 5759 5757 5755 5754 5753 5751 5752 5751 5751 5751
5799 5798 5818 5824 5829 5826 5814 5816 5829 5811 5802 5796 5804 5808 5817 5825 5824 5824 5823 5820 5816 5813 5809 5804 5800 5794 5788 5783 5779 5776 5770 5766 5764 5762 5759 5757 5755 5753 5752 5751 5750 5750 5749 5750
5808 5795 5808 5815 5820 5819 5824 5823 5812 5804 5782 5782 5792 5798 5806 5810 5814 5818 5818 5816 5814 5812 5809 5804 5800 5796 5791 5786 5781 5777 5771 5767 5764 5761 5759 5758 5754 5752 5750 5750 5748 5747 5747 5747
5808 5794 5797 5804 5803 5805 5806 5807 5809 5807 5804 5788 5783 5797 5822 5817 5818 5816 5817 5818 5815 5812 5809 5804 5800 5796 5792 5787 5781 5776 5771 5766 5763 5760 5758 5756 5754 5752 5749 5747 5746 5745 5745 5744
5802 5798 5790 5799 5814 5822 5818 5814 5808 5793 5787 5794 5796 5801 5826 5824 5824 5820 5818 5816 5815 5812 5809 5804 5799 5794 5790 5786 5781 5775 5770 5766 5763 5760 5757 5754 5752 5750 5748 5746 5745 5743 5742 5741
5795 5787 5773 5777 5789 5802 5805 5810 5813 5811 5799 5794 5792 5799 5822 5821 5819 5819 5816 5814 5811 5808 5805 5801 5796 5791 5787 5783 5779 5774 5770 5766 5764 5760 5756 5753 5751 5748 5745 5744 5742 5740 5739 5737
5797 5787 5784 5782 5792 5801 5796 5801 5807 5805 5798 5793 5796 5803 5810 5813 5812 5813 5812 5810 5809 5804 5800 5796 5791 5787 5784 5780 5776 5772 5768 5766 5763 5759 5755 5751 5749 5746 5744 5742 5740 5737 5735 5733
5789 5780 5786 5796 5803 5806 5802 5801 5800 5800 5804 5800 5802 5803 5809 5812 5811 5810 5809 5807 5803 5799 5796 5792 5788 5784 5780 5776 5773 5770 5767 5763 5760 5756 5752 5749 5747 5745 5742 5739 5736 5734 5732 5730
5781 5777 5780 5780 5791 5795 5793 5798 5799 5800 5803 5803 5804 5803 5814 5814 5812 5806 5804 5801 5797 5795 5793 5790 5786 5782 5778 5774 5771 5767 5764 5760 5757 5752 5749 5746 5744 5741 5738 5735 5732 5729 5727 5725
5773 5770 5768 5771 5782 5780 5774 5792 5795 5796 5802 5801 5796 5802 5808 5804 5801 5800 5799 5798 5794 5793 5791 5788 5784 5780 5776 5773 5770 5764 5761 5758 5753 5749 5745 5741 5739 5736 5734 5731 5727 5725 5722 5721
5766 5764 5768 5771 5763 5748 5783 5803 5802 5797 5798 5803 5801 5802 5802 5799 5798 5798 5798 5795 5791 5790 5788 5786 5783 5779 5776 5773 5768 5763 5759 5754 5749 5745 5741 5737 5734 5731 5728 5726 5723 5720 5717 5715
5770 5761 5763 5764 5755 5762 5775 5787 5793 5787 5786 5798 5795 5795 5796 5796 5793 5790 5791 5791 5789 5788 5786 5784 5782 5778 5773 5769 5764 5759 5754 5749 5745 5740 5736 5734 5731 5728 5724 5720 5718 5715 5712 5709
5758 5760 5761 5757 5752 5750 5773 5789 5795 5788 5772 5792 5791 5788 5789 5787 5781 5779 5782 5783 5783 5782 5780 5778 5777 5773 5767 5763 5760 5754 5749 5744 5739 5736 5733 5731 5727 5723 5720 5716 5711 5709 5707 5703
5742 5744 5751 5752 5751 5765 5777 5784 5783 5763 5768 5785 5786 5783 5782 5779 5777 5774 5775 5773 5773 5772 5771 5770 5768 5763 5759 5756 5753 5746 5742 5738 5735 5731 5728 5725 5721 5717 5714 5710 5706 5702 5700 5696
5745 5746 5744 5751 5747 5752 5769 5773 5771 5769 5777 5779 5778 5778 5774 5770 5768 5766 5765 5763 5763 5762 5761 5760 5757 5754 5751 5749 5744 5739 5734 5733 5730 5725 5721 5718 5715 5713 5709 5704 5700 5697 5693 5689
5741 5747 5755 5752 5750 5753 5764 5768 5768 5772 5769 5769 5770 5770 5767 5762 5759 5757 5754 5754 5753 5752 5751 5750 5747 5743 5740 5738 5735 5730 5727 5725 5722 5718 5714 5711 5708 5705 5702 5697 5693 5690 5686 5684
5727 5735 5741 5739 5740 5746 5752 5758 5761 5763 5762 5762 5763 5761 5759 5754 5750 5747 5745 5743 5743 5742 5741 5739 5736 5732 5729 5727 5725 5722 5720 5718 5714 5710 5706 5703 5700 5697 5693 5690 5687 5683 5680 5677
5722 5728 5731 5729 5731 5736 5740 5745 5750 5752 5753 5753 5753 5752 5749 5745 5741 5738 5735 5733 5732 5731 5731 5729 5725 5722 5719 5718 5715 5713 5711 5709 5705 5702 5699 5696 5692 5689 5684 5680 5677 5675 5671 5669
5716 5720 5724 5725 5727 5731 5728 5735 5740 5740 5740 5740 5740 5738 5738 5736 5732 5729 5726 5724 5722 5720 5720 5717 5715 5713 5710 5708 5706 5704 5703 5701 5698 5695 5693 5691 5686 5682 5679 5674 5667 5661 5659 5655